This demonstration page uses our WeatherBlox Daily Observations layout. Learn more.

Hourly Observations for August 30, 2020

Temp ( °F °C ) Dew Point ( °F °C ) Humidity (%) Winds ( mph kmh ) Pressure ( in mb ) Visibility ( mi km ) Precip ( " mm )
12:51 am 00:51 Mostly Cloudy 71 21.7 66 18.9 84 84 W 15 24 29.86 1011 10 16.0934 0.01 0.254
1:51 am 01:51 Partly Cloudy 71 21.7 65 18.3 81 81 W 10 17 29.81 1009 10 16.0934 0 0
2:51 am 02:51 Clear 71 21.7 65 18.3 81 81 WNW 8 13 29.78 1008 10 16.0934 0 0
3:51 am 03:51 Clear 71 21.7 67 19.4 87 87 NNW 9 15 29.77 1008 10 16.0934 0 0
4:51 am 04:51 Clear 73 22.8 65 18.3 76 76 Calm 29.78 1008 10 16.0934 0 0
5:51 am 05:51 Clear 70 21.1 67 19.4 90 90 NW 6 9 29.79 1009 10 16.0934 0 0
6:51 am 06:51 Sunny 70 21.1 68 20 93 93 SW 3 6 29.8 1009 10 16.0934 0 0
7:51 am 07:51 Sunny 72 22.2 68 20 87 87 S 5 7 29.82 1010 10 16.0934 0 0
8:51 am 08:51 Sunny 75 23.9 67 19.4 76 76 VRB 3 6 29.84 1011 10 16.0934 0 0
9:51 am 09:51 Sunny 78 25.6 67 19.4 69 69 VRB 3 6 29.85 1011 10 16.0934 0 0
10:51 am 10:51 Sunny 81 27.2 65 18.3 58 58 Calm 29.83 1010 10 16.0934 0 0
11:51 am 11:51 Sunny 86 30 63 17.2 46 46 Calm 29.79 1009 10 16.0934 0 0
12:51 pm 12:51 Sunny 90 32.2 61 16.1 38 38 NNW 3 6 29.75 1007 10 16.0934 0 0
1:51 pm 13:51 Sunny 91 32.8 61 16.1 37 37 SW 6 9 29.72 1006 10 16.0934 0 0
2:51 pm 14:51 Sunny 93 33.9 58 14.4 31 31 VRB 5 7 29.68 1005 10 16.0934 0 0
3:51 pm 15:51 Sunny 93 33.9 57 13.9 30 30 VRB 3 6 29.65 1004 10 16.0934 0 0
4:51 pm 16:51 Sunny 92 33.3 59 15 33 33 SSE 8 13 29.64 1004 10 16.0934 0 0
5:51 pm 17:51 Sunny 91 32.8 60 15.6 35 35 S 6 9 29.64 1004 10 16.0934 0 0
6:51 pm 18:51 Clear 89 31.7 61 16.1 39 39 NW 12 19 29.67 1005 10 16.0934 0 0
7:51 pm 19:51 Mostly Cloudy 88 31.1 58 14.4 36 36 N 8 13 29.7 1006 10 16.0934 0 0
8:51 pm 20:51 Clear 84 28.9 58 14.4 41 41 NNW 7 11 29.72 1007 10 16.0934 0 0
9:51 pm 21:51 Clear 82 27.8 59 15 46 46 NW 9 15 29.72 1007 10 16.0934 0 0
10:51 pm 22:51 Mostly Clear 83 28.3 60 15.6 46 46 NW 12 19 29.73 1007 10 16.0934 0 0
11:51 pm 23:51 Clear 81 27.2 64 17.8 57 57 WNW 16 26 29.72 1007 10 16.0934 0 0

Powered by AerisWeather